Vorticity
3 5 10 14 15 11 5 13 8 9 7 11 6 4 -6 15 -1 6 6 3 -1 1 10 13 5 12 2 3 1 4 8 6 6 10 9 9 4 4 4 6 6 6 7 6
12 14 11 10 10 5 8 8 11 7 15 5 9 7 10 56 -2 0 -2 -16 2 9 5 9 8 2 5 8 3 1 1 8 6 4 7 5 3 4 4 3 6 5 6 6
48 62 65 33 12 7 8 10 6 8 12 11 6 11 9 4 50 1 11 9 7 12 6 9 13 9 4 2 5 16 3 6 8 7 5 6 4 2 3 5 5 6 5 5
14 11 38 62 27 8 9 7 4 3 6 20 9 14 7 9 12 39 26 6 19 19 16 6 7 13 9 4 7 -0 12 -4 -1 7 5 4 5 6 6 7 6 5 6 6
35 18 3 50 43 9 13 9 8 3 10 15 13 18 7 7 7 -7 -1 4 11 25 11 8 6 10 6 11 3 -1 3 8 -5 2 5 4 7 7 7 7 6 7 6 8
14 20 35 65 44 10 10 8 5 9 10 14 22 6 14 5 6 4 -2 -1 11 15 18 16 11 11 11 4 9 4 -8 34 11 -4 5 4 2 2 3 5 10 10 8 8
36 25 50 1 67 9 15 7 9 15 12 17 8 -4 10 9 6 14 10 3 17 0 21 10 12 11 7 4 5 10 5 6 12 5 -5 0 5 2 -3 -1 5 6 8 5
28 3 25 15 41 21 15 13 13 4 10 22 11 19 -1 10 6 6 8 5 9 6 1 23 2 14 10 4 19 12 7 7 5 3 3 11 4 3 6 -1 -5 1 5 6
13 37 16 24 22 11 28 1 16 24 8 14 16 20 -17 -3 2 16 6 -3 11 9 7 17 14 5 1 4 5 12 19 6 9 2 1 13 3 -8 3 -5 6 3 -4 -3
11 -15 26 15 13 16 -12 8 4 8 19 13 -6 36 16 -1 -5 18 16 3 26 10 26 -11 14 2 7 8 6 2 18 9 19 7 8 1 8 6 2 -7 1 5 -2 1
20 11 -5 20 22 11 14 1 -1 -6 12 30 -8 12 2 23 12 -1 19 6 4 -5 14 24 -3 10 7 17 14 25 10 17 35 4 5 12 4 8 12 11 4 -4 -3 -1
-4 17 30 15 -14 26 22 8 8 -3 38 19 7 -14 9 5 47 -1 -4 3 7 -7 13 5 8 5 12 7 -1 -4 12 18 14 8 10 17 -7 4 5 -2 -1 3 1 18
15 9 22 20 9 -7 29 26 9 -8 -2 25 -6 11 -4 -0 23 22 11 -8 -14 11 10 13 10 12 8 3 7 3 1 36 7 43 31 11 8 1 22 15 13 6 2 23
31 17 8 16 38 11 -6 33 11 9 12 8 6 6 22 8 6 20 20 20 20 2 9 7 11 5 1 2 5 -1 5 9 3 7 43 -2 -19 17 -28 14 -1 19 -2 5
13 29 14 3 8 33 -14 -21 49 18 16 8 3 0 19 7 -1 8 9 8 1 11 5 1 6 4 5 1 2 -2 12 6 4 9 19 18 32 58 -5 36 -32 -45 -1 40
10 11 29 18 7 28 -12 15 -46 34 11 8 7 11 3 9 9 -5 10 5 3 4 -1 1 8 5 1 -1 -2 -0 3 8 8 3 3 16 22 35 67 -4 40 23 55 19
14 10 13 24 19 6 15 7 22 -13 24 22 16 2 15 21 12 0 13 11 12 8 3 -0 5 6 7 6 6 -0 4 1 6 3 3 5 8 12 15 20 31 10 -6 -3
16 14 12 10 32 6 22 12 15 26 -2 -11 23 29 -4 28 14 8 -4 7 10 8 5 7 5 7 4 6 9 3 15 9 8 5 2 5 6 7 10 11 13 17 12 7
17 22 17 17 19 20 4 22 15 17 16 23 -5 -16 33 -26 41 31 7 -0 -9 10 11 11 8 3 4 7 7 3 21 12 9 6 6 8 6 7 8 9 8 11 11 8
9 1 8 18 23 22 16 8 22 19 13 8 25 -1 13 10 8 7 57 1 25 -7 -8 20 5 2 6 7 4 14 11 12 8 4 2 6 7 4 5 8 7 11 13 13
22 22 14 3 11 8 14 15 18 21 19 15 2 17 -3 19 19 10 9 13 26 25 12 19 -2 8 14 -2 6 7 13 13 12 8 6 -2 6 8 6 6 8 7 7 10
7 19 39 24 -5 2 8 20 8 -2 34 27 15 6 34 -12 23 16 9 13 2 9 33 10 13 15 3 9 -1 8 9 13 10 9 6 4 0 5 13 7 6 5 4 4
14 -5 20 3 22 15 22 -1 1 5 16 2 27 30 3 -12 8 14 10 13 6 4 18 12 15 30 8 5 6 4 4 3 8 9 10 9 7 4 -1 1 1 2 5 8
25 18 -12 6 -2 2 -1 15 13 -3 -1 18 26 13 32 16 2 11 13 8 7 -3 11 7 15 0 28 20 4 2 1 6 7 7 7 8 6 3 1 2 2 2 2 2
25 23 7 -0 3 7 5 -1 11 8 12 2 4 10 8 33 11 27 10 8 22 15 6 -18 15 7 15 22 13 9 7 1 1 5 7 6 8 11 8 7 9 7 6 5
26 32 34 50 42 18 7 4 0 12 -7 14 4 -9 -8 -6 18 16 11 17 4 21 22 9 6 -13 -18 21 14 10 6 4 -0 1 -2 -1 2 1 0 1 6 5 4 5
Height
5638 5632 5638 5653 5655 5662 5660 5668 5672 5684 5695 5696 5703 5710 5720 5724 5723 5727 5730 5738 5749 5754 5761 5768 5775 5780 5785 5788 5793 5798 5803 5807 5811 5814 5819 5822 5827 5829 5832 5834 5836 5838 5841 5842
5610 5604 5626 5633 5628 5632 5639 5649 5657 5669 5678 5685 5694 5699 5707 5713 5716 5719 5725 5729 5740 5747 5750 5755 5767 5772 5777 5784 5788 5794 5798 5803 5806 5810 5814 5817 5819 5822 5825 5829 5832 5834 5837 5838
5577 5587 5589 5591 5605 5612 5622 5633 5648 5658 5666 5671 5680 5682 5690 5701 5707 5711 5716 5724 5732 5739 5743 5746 5757 5765 5771 5778 5782 5789 5794 5797 5801 5805 5807 5809 5814 5817 5822 5826 5829 5829 5833 5833
5566 5572 5565 5566 5575 5595 5607 5628 5637 5642 5650 5657 5668 5670 5677 5689 5695 5702 5708 5714 5720 5728 5733 5738 5747 5756 5764 5771 5777 5780 5785 5789 5794 5797 5802 5804 5809 5813 5817 5819 5821 5824 5828 5829
5557 5554 5552 5548 5559 5579 5598 5618 5623 5632 5640 5649 5654 5657 5669 5677 5683 5691 5699 5703 5710 5720 5724 5729 5735 5745 5754 5761 5768 5775 5776 5782 5787 5790 5795 5798 5802 5808 5811 5813 5815 5819 5823 5826
5545 5543 5537 5538 5549 5568 5592 5599 5609 5618 5627 5628 5643 5649 5658 5666 5676 5685 5694 5696 5702 5710 5716 5721 5727 5732 5744 5751 5758 5765 5769 5773 5778 5782 5786 5791 5793 5799 5804 5807 5809 5813 5815 5819
5538 5536 5537 5541 5547 5562 5576 5587 5595 5604 5609 5616 5635 5639 5646 5662 5670 5675 5684 5690 5693 5701 5707 5713 5719 5719 5731 5740 5748 5755 5760 5763 5769 5774 5777 5784 5787 5792 5796 5799 5802 5805 5807 5812
5535 5535 5536 5538 5542 5556 5567 5577 5585 5594 5605 5615 5627 5626 5640 5655 5659 5665 5675 5681 5686 5692 5699 5704 5711 5713 5721 5731 5738 5745 5751 5756 5761 5765 5769 5774 5779 5784 5789 5792 5795 5797 5801 5804
5535 5532 5534 5539 5546 5558 5568 5573 5584 5593 5603 5610 5618 5629 5639 5641 5647 5655 5662 5670 5678 5683 5690 5697 5703 5707 5715 5721 5727 5734 5740 5746 5752 5755 5759 5764 5771 5775 5781 5784 5786 5788 5790 5794
5538 5534 5538 5543 5548 5556 5561 5568 5577 5584 5592 5599 5609 5620 5628 5633 5639 5646 5653 5662 5669 5675 5681 5689 5694 5697 5706 5713 5718 5723 5731 5736 5744 5745 5748 5753 5760 5764 5768 5771 5774 5780 5781 5784
5538 5536 5536 5542 5547 5552 5557 5564 5571 5580 5587 5594 5604 5615 5618 5622 5630 5638 5646 5653 5660 5666 5673 5681 5688 5691 5697 5704 5711 5715 5720 5722 5727 5731 5737 5742 5747 5753 5756 5759 5764 5766 5767 5772
5537 5536 5535 5540 5545 5550 5554 5559 5566 5572 5579 5587 5594 5605 5604 5612 5621 5631 5637 5645 5651 5658 5665 5673 5680 5683 5686 5692 5700 5705 5708 5712 5717 5723 5728 5729 5733 5739 5745 5749 5754 5759 5762 5762
5534 5532 5536 5535 5540 5543 5548 5554 5560 5567 5572 5579 5586 5589 5594 5601 5608 5617 5627 5635 5641 5647 5653 5660 5667 5672 5675 5682 5687 5694 5700 5704 5709 5709 5712 5710 5719 5726 5730 5735 5743 5748 5750 5752
5531 5529 5529 5533 5534 5538 5541 5545 5552 5558 5566 5570 5576 5584 5586 5592 5599 5605 5614 5622 5630 5635 5643 5650 5657 5661 5668 5672 5677 5682 5687 5692 5695 5697 5700 5697 5691 5698 5716 5719 5721 5730 5733 5737
5530 5528 5525 5526 5527 5530 5535 5538 5543 5550 5558 5563 5571 5576 5580 5583 5589 5597 5604 5612 5619 5625 5633 5642 5648 5653 5657 5662 5668 5672 5676 5682 5683 5688 5690 5692 5697 5692 5694 5702 5697 5715 5712 5719
5520 5521 5519 5520 5518 5523 5527 5527 5535 5541 5548 5554 5562 5568 5571 5573 5578 5587 5594 5601 5608 5614 5619 5628 5636 5642 5647 5652 5658 5662 5666 5670 5672 5674 5675 5676 5680 5683 5685 5696 5695 5706 5706 5704
5512 5509 5508 5514 5509 5515 5519 5518 5521 5529 5537 5544 5554 5561 5562 5563 5570 5577 5584 5590 5596 5602 5607 5612 5621 5630 5635 5640 5646 5650 5653 5656 5662 5662 5669 5671 5675 5677 5680 5685 5682 5693 5697 5694
5502 5498 5497 5500 5504 5505 5505 5503 5506 5515 5527 5535 5541 5546 5552 5551 5557 5563 5571 5580 5585 5589 5594 5600 5607 5616 5623 5627 5631 5636 5641 5646 5649 5655 5657 5661 5667 5671 5674 5677 5679 5681 5685 5689
5488 5487 5485 5488 5492 5494 5492 5495 5500 5507 5515 5519 5525 5532 5535 5537 5540 5549 5557 5565 5572 5577 5582 5587 5594 5602 5610 5615 5620 5625 5629 5635 5639 5643 5647 5652 5657 5662 5666 5669 5671 5673 5678 5682
5480 5476 5477 5478 5480 5481 5485 5487 5492 5498 5499 5505 5514 5519 5524 5524 5528 5536 5544 5549 5558 5567 5570 5575 5582 5588 5596 5602 5608 5614 5621 5625 5628 5632 5635 5638 5647 5651 5655 5660 5663 5666 5671 5675
5468 5468 5465 5469 5471 5471 5473 5479 5481 5484 5492 5494 5500 5506 5512 5515 5517 5519 5529 5535 5544 5550 5556 5562 5569 5575 5582 5589 5596 5601 5607 5614 5619 5624 5627 5629 5631 5639 5644 5648 5652 5656 5659 5664
5454 5457 5456 5459 5463 5465 5463 5468 5471 5475 5476 5480 5483 5489 5494 5498 5501 5505 5513 5522 5528 5533 5542 5546 5552 5560 5568 5574 5581 5588 5593 5600 5606 5611 5618 5622 5623 5626 5634 5639 5643 5646 5650 5653
5446 5446 5446 5449 5452 5452 5453 5457 5461 5465 5467 5468 5473 5475 5476 5485 5489 5492 5498 5504 5511 5514 5520 5528 5536 5544 5552 5558 5565 5572 5579 5586 5593 5599 5604 5610 5615 5618 5621 5625 5630 5633 5637 5641
5426 5432 5431 5435 5442 5439 5439 5445 5450 5453 5456 5459 5460 5461 5461 5470 5478 5482 5486 5490 5494 5501 5508 5514 5521 5527 5534 5542 5549 5556 5563 5570 5577 5585 5591 5596 5601 5606 5610 5614 5618 5622 5627 5630
5413 5416 5419 5421 5427 5429 5429 5431 5434 5439 5444 5447 5449 5448 5449 5455 5463 5469 5474 5476 5480 5487 5494 5502 5508 5514 5520 5526 5534 5540 5548 5554 5561 5569 5574 5580 5585 5591 5597 5601 5606 5610 5614 5618
5405 5405 5406 5407 5411 5413 5419 5419 5420 5425 5429 5432 5434 5436 5438 5441 5446 5454 5459 5463 5464 5471 5477 5485 5493 5501 5505 5512 5517 5524 5531 5537 5544 5551 5558 5564 5570 5576 5581 5586 5591 5595 5600 5604